Location: Oak Glen
(34.0495°N, 116.9470°E)
Time: 04:49:08
(UTC-07:00)

Vanguard 1 Rocket - Visible Passes

Search period start: 21 July 2018 00:00
Search period end: 31 July 2018 00:00
Orbit: 652 x 4225 km, 34.3° (Epoch: 20 July)

Date Brightness Start Highest point End Pass type
(mag) Time Alt. Az. Time Alt. Az. Time Alt. Az.
21 Jul 11.3 13:49:41 10° SSW 14:12:00 38° SE 14:29:13 10° E visible
22 Jul 11.6 12:39:04 10° S 12:57:51 26° SE 13:14:28 10° E visible
23 Jul 11.6 11:32:05 10° SSE 11:43:58 15° SE 11:55:37 10° ESE visible
23 Jul 11.2 13:50:42 10° SSW 14:14:27 45° SE 14:32:51 10° E visible
24 Jul 11.4 12:39:18 10° SSW 13:00:09 33° SE 13:18:47 10° E visible
25 Jul 11.5 11:30:18 10° S 11:46:14 21° SE 12:02:06 10° E visible
25 Jul 11.1 13:52:09 10° SW 14:16:51 53° SSE 14:36:14 10° ENE visible
26 Jul 11.6 10:30:24 10° SE 10:32:47 10° SE 10:35:12 10° ESE visible
26 Jul 11.2 12:40:26 10° SSW 13:02:21 40° SE 13:22:34 10° E visible
27 Jul 11.3 11:33:20 15° S 11:48:21 28° SE 12:06:59 10° E visible
27 Jul 10.9 13:53:56 10° SW 14:19:14 61° SSE 14:39:28 10° ENE visible
28 Jul 11.4 10:26:11 12° SSE 10:34:57 16° SE 10:47:15 10° E visible
28 Jul 11.1 12:43:29 14° SSW 13:04:31 48° SE 13:26:00 10° ENE visible
29 Jul 11.1 11:36:18 20° S 11:50:21 34° SE 12:11:03 10° E visible
30 Jul 11.2 10:29:06 18° SSE 10:36:56 22° SE 10:53:23 10° E visible
30 Jul 10.9 12:46:23 17° SSW 13:06:40 56° SE 13:29:13 10° ENE visible
